TimeEDT,TemperatureF,Dew PointF,Humidity,Sea Level PressureIn,VisibilityMPH,Wind Direction,Wind SpeedMPH,Gust SpeedMPH,PrecipitationIn,Events,Conditions,WindDirDegrees,DateUTC
12:53 AM,51.1,45.0,80,30.12,10.0,Calm,Calm,-,N/A,,Clear,0,2013-05-07 04:53:00
1:53 AM,50.0,46.0,86,30.11,10.0,Calm,Calm,-,N/A,,Clear,0,2013-05-07 05:53:00
2:53 AM,50.0,46.0,86,30.09,10.0,Calm,Calm,-,N/A,,Clear,0,2013-05-07 06:53:00
4:53 AM,44.1,43.0,96,30.11,5.0,Calm,Calm,-,N/A,,Clear,0,2013-05-07 08:53:00
4:56 AM,44.6,42.8,93,30.11,1.8,Calm,Calm,-,N/A,,Clear,0,2013-05-07 08:56:00
5:06 AM,44.6,42.8,93,30.11,3.0,Calm,Calm,-,N/A,,Clear,0,2013-05-07 09:06:00
5:12 AM,44.6,42.8,93,30.11,1.2,Calm,Calm,-,N/A,,Clear,0,2013-05-07 09:12:00
5:20 AM,44.6,42.8,93,30.11,0.5,Calm,Calm,-,N/A,Fog,Fog,0,2013-05-07 09:20:00
5:39 AM,42.8,41.0,93,30.11,0.8,Calm,Calm,-,N/A,,Mist,0,2013-05-07 09:39:00
5:41 AM,44.6,42.8,93,30.11,1.2,Calm,Calm,-,N/A,,Partly Cloudy,0,2013-05-07 09:41:00
5:44 AM,44.6,42.8,93,30.12,4.0,Calm,Calm,-,N/A,,Clear,0,2013-05-07 09:44:00
6:53 AM,46.9,46.0,97,30.13,10.0,Calm,Calm,-,N/A,,Clear,0,2013-05-07 10:53:00
7:53 AM,53.1,48.9,86,30.13,10.0,Calm,Calm,-,N/A,,Clear,0,2013-05-07 11:53:00
8:53 AM,60.1,51.1,72,30.13,10.0,North,3.5,-,N/A,,Clear,350,2013-05-07 12:53:00
9:53 AM,66.0,52.0,60,30.13,10.0,Variable,4.6,-,N/A,,Clear,0,2013-05-07 13:53:00
10:53 AM,69.1,51.1,53,30.12,10.0,Variable,6.9,-,N/A,,Clear,0,2013-05-07 14:53:00
11:53 AM,72.0,48.9,44,30.10,10.0,East,3.5,-,N/A,,Clear,100,2013-05-07 15:53:00
12:53 PM,73.9,46.0,37,30.09,10.0,SSW,4.6,-,N/A,,Clear,210,2013-05-07 16:53:00
1:53 PM,75.9,46.9,36,30.06,10.0,East,6.9,-,N/A,,Clear,90,2013-05-07 17:53:00
2:53 PM,73.9,45.0,35,30.05,10.0,SE,9.2,-,N/A,,Mostly Cloudy,140,2013-05-07 18:53:00
3:53 PM,73.9,46.0,37,30.03,10.0,East,8.1,-,N/A,,Overcast,90,2013-05-07 19:53:00
4:53 PM,75.0,45.0,34,30.02,10.0,ESE,5.8,-,N/A,,Mostly Cloudy,110,2013-05-07 20:53:00
5:53 PM,75.0,45.0,34,30.01,10.0,East,9.2,-,N/A,,Partly Cloudy,90,2013-05-07 21:53:00
6:53 PM,73.9,44.1,34,30.01,10.0,East,8.1,-,N/A,,Clear,100,2013-05-07 22:53:00
7:53 PM,72.0,44.1,37,30.01,10.0,SE,6.9,-,N/A,,Clear,140,2013-05-07 23:53:00
8:53 PM,69.1,45.0,42,30.03,10.0,SE,3.5,-,N/A,,Clear,140,2013-05-08 00:53:00
9:53 PM,64.0,46.0,52,30.04,10.0,East,3.5,-,N/A,,Clear,90,2013-05-08 01:53:00
10:53 PM,55.9,46.9,72,30.06,10.0,North,3.5,-,N/A,,Clear,10,2013-05-08 02:53:00
11:53 PM,55.0,46.9,74,30.06,10.0,Calm,Calm,-,N/A,,Clear,0,2013-05-08 03:53:00